Wind_Speed
17 14 10 8 8 8 9 11 12 12 12 12 12 12 11 11 11 12 12 13 13 14 15 14 13 14 16 18 7 7 10 12 11 6 3 14 10 12 13 13 11 13 16 14 13
19 15 11 9 9 9 10 12 13 13 12 11 10 10 10 9 9 9 10 11 12 13 14 11 9 9 12 11 9 9 12 10 3 8 11 13 10 14 13 13 15 15 15 14 13
20 16 13 11 10 10 10 12 14 13 12 11 10 9 9 9 8 8 8 9 9 11 12 11 10 7 6 8 6 8 11 7 4 3 1 5 8 10 12 15 15 14 14 11 11
20 18 15 13 12 11 11 11 13 13 12 11 10 10 9 9 9 7 6 7 7 8 8 8 9 5 1 7 3 9 10 5 4 3 3 6 5 4 12 13 12 12 13 13 9
21 19 16 15 14 13 12 12 11 12 12 11 10 9 8 8 8 8 6 5 6 6 4 3 5 4 3 4 4 9 11 8 7 3 8 6 6 9 10 12 18 14 14 14 9
21 19 18 16 15 14 14 12 11 11 11 10 9 8 7 6 6 7 6 6 7 6 4 1 2 1 3 2 2 5 8 9 6 3 10 9 1 8 13 17 21 23 18 11 11
21 20 19 18 16 15 15 13 12 10 10 9 9 8 6 4 4 4 4 4 4 4 3 2 1 5 6 3 3 2 2 7 2 8 15 13 5 8 14 19 24 25 23 15 11
22 21 20 19 18 17 16 14 12 11 9 9 9 7 5 4 4 5 4 3 2 2 1 3 4 5 4 5 5 7 5 10 4 11 13 23 19 18 15 18 24 26 23 19 14
23 22 20 19 18 17 16 14 13 11 10 9 8 8 7 4 4 5 5 5 5 4 3 6 7 7 11 11 11 13 4 5 5 7 13 18 19 18 16 14 15 16 18 17 16
23 22 21 20 19 18 16 14 12 11 9 8 7 6 5 5 6 5 5 4 6 8 7 8 8 11 16 14 12 6 4 4 5 6 13 14 25 21 19 14 9 8 19 22 17
24 23 22 21 19 18 16 15 13 11 10 9 8 6 6 5 4 6 7 8 8 9 9 9 11 15 14 11 12 12 8 1 2 6 13 22 19 20 20 17 10 5 18 21 18
24 24 22 21 19 19 17 15 13 12 10 9 9 8 8 6 4 6 6 7 8 8 10 9 12 13 11 13 13 15 16 15 7 8 12 13 14 18 22 19 7 8 16 18 26
24 23 23 21 20 19 17 16 14 13 11 11 10 9 9 7 7 9 8 8 8 9 10 12 11 15 18 17 14 18 20 20 22 23 19 12 15 23 24 22 9 14 13 17 23
24 24 23 22 21 19 17 16 14 14 12 12 11 10 12 9 7 11 7 9 9 10 10 12 10 10 10 13 15 15 16 21 24 23 20 17 12 25 25 24 7 5 11 21 20
25 24 23 22 21 20 19 17 16 14 13 13 13 13 14 11 8 13 9 10 10 10 10 14 4 2 11 11 11 11 13 17 17 17 16 16 21 20 27 28 20 17 16 22 14
26 25 24 23 21 21 20 18 17 16 15 14 14 14 17 12 12 11 12 10 9 7 9 9 4 5 6 7 11 13 13 12 13 15 10 5 13 16 24 23 23 19 23 25 15
27 26 26 25 24 23 21 20 19 17 20 18 18 17 16 15 15 9 12 9 8 9 10 10 10 12 9 8 8 9 7 9 12 19 19 19 22 20 19 23 20 21 27 26 14
28 27 27 27 26 25 24 23 19 20 24 25 22 20 12 15 15 13 13 11 10 11 12 11 17 19 7 12 11 11 12 12 14 21 19 20 21 20 14 19 23 29 31 28 24
29 29 29 28 27 26 26 25 19 23 24 25 24 18 17 13 16 17 16 13 10 11 15 17 18 15 15 13 16 15 15 17 10 12 16 18 20 21 21 23 25 29 33 37 37
29 29 30 28 29 29 28 24 21 26 28 29 25 19 17 16 18 15 16 12 13 16 15 18 16 19 22 21 20 20 18 20 20 15 17 17 23 19 16 19 25 30 35 39 42
30 31 31 31 31 31 29 23 23 32 34 34 30 23 21 18 21 19 16 17 22 26 21 18 15 17 23 26 27 27 26 23 15 11 17 26 21 18 18 21 29 36 42 44 45
32 33 32 32 31 31 27 25 30 37 37 37 36 29 27 28 25 27 25 30 28 28 28 24 21 20 16 24 28 34 32 26 24 15 17 19 26 27 30 37 40 44 47 46 45
34 36 33 33 33 31 32 35 35 38 39 38 32 29 31 32 31 32 32 33 33 31 31 30 30 29 27 26 29 25 30 30 31 31 23 23 23 33 37 39 42 45 47 47 45
39 40 38 38 38 39 40 36 35 38 39 39 37 33 34 35 37 38 38 39 40 40 40 37 36 34 31 30 27 29 30 35 37 35 34 25 24 28 38 38 40 42 42 44 44
41 43 43 42 40 40 39 36 37 38 40 41 40 37 37 38 35 41 41 41 43 45 43 41 41 41 35 34 32 30 32 39 41 40 39 34 34 34 37 40 43 45 46 45 43
40 40 43 43 41 39 40 39 39 43 44 44 39 42 38 40 38 37 37 40 40 40 40 42 45 41 38 37 37 35 32 38 41 44 45 44 41 43 43 44 44 44 44 41 40
42 43 44 44 43 42 45 44 40 41 42 41 38 40 40 38 37 34 37 41 40 41 40 42 41 39 36 35 34 34 27 29 38 42 46 47 46 45 45 45 44 41 37 37 41
Wind_Direction
183 178 166 147 136 129 125 122 121 120 118 110 105 102 97 94 94 95 94 96 94 95 98 108 119 125 130 129 142 182 107 73 25 341 345 307 285 252 298 1 41 13 14 28 27
185 180 171 160 149 140 134 131 129 127 126 122 112 105 100 100 100 101 99 96 95 96 100 103 101 106 126 135 133 120 104 67 303 279 264 272 268 306 323 349 17 9 9 14 24
187 183 177 170 162 153 144 141 136 133 133 128 118 110 102 100 107 108 108 103 97 100 107 116 117 129 148 156 148 110 104 95 72 84 301 300 318 323 329 342 8 358 351 4 23
189 187 182 175 171 164 156 151 144 140 137 135 127 117 103 97 102 112 112 110 106 97 109 117 122 172 234 235 244 105 101 100 73 64 17 356 31 340 330 347 356 353 349 355 17
191 190 186 181 176 172 167 162 157 150 144 143 140 132 118 110 107 102 105 114 111 120 125 124 120 134 199 233 190 107 109 107 81 36 9 9 338 301 7 11 4 7 2 352 357
193 193 189 187 182 178 174 171 167 158 153 150 153 152 143 122 124 122 119 112 110 110 123 183 215 55 299 283 212 130 127 123 128 15 9 5 7 321 11 16 5 356 9 21 1
194 194 192 191 188 186 180 177 174 170 162 160 162 169 162 148 148 158 155 145 132 117 116 140 289 243 203 192 196 174 89 164 169 24 359 6 4 334 4 14 4 355 349 358 356
195 196 195 194 192 190 186 184 182 179 175 172 172 175 183 167 184 198 194 197 194 206 248 339 258 212 202 186 134 84 118 162 56 22 352 344 332 330 349 9 6 352 337 340 3
197 196 197 197 194 192 190 188 190 191 189 183 182 183 189 207 198 207 216 210 212 244 278 282 253 185 178 168 154 142 196 161 53 9 329 333 316 310 331 2 10 354 342 340 335
199 197 196 197 196 195 195 193 195 199 199 194 192 196 212 200 209 213 220 236 242 255 252 266 237 201 202 195 202 237 93 156 58 337 314 308 307 310 319 334 22 46 5 351 334
200 198 197 197 199 198 198 196 200 205 210 212 212 208 236 238 207 216 214 225 244 263 272 263 227 218 221 207 230 184 118 62 147 321 311 308 296 302 305 318 335 5 26 1 348
203 202 201 200 201 204 204 205 210 213 216 223 220 222 244 242 237 247 243 247 259 270 279 260 245 222 222 216 192 185 182 210 235 248 295 293 300 300 301 306 320 13 42 23 358
208 207 206 205 206 206 209 213 213 218 225 229 240 235 242 241 242 245 249 263 262 270 279 273 246 230 212 186 202 198 210 227 237 246 260 272 281 285 290 302 337 96 62 26 349
215 212 211 211 212 213 216 219 223 232 230 237 242 246 249 256 250 256 258 257 265 277 261 253 243 209 199 208 221 225 218 227 245 257 263 276 250 260 281 290 293 313 350 346 341
219 219 216 214 216 218 221 226 227 235 236 242 245 254 262 253 236 249 258 259 255 262 266 261 270 358 239 251 267 282 262 239 231 238 258 254 255 254 263 270 280 303 326 327 323
218 219 220 218 218 221 223 226 229 235 235 234 239 247 256 249 247 248 250 253 256 258 245 260 230 256 251 255 253 258 271 269 262 253 216 210 251 252 259 270 285 297 308 313 320
219 219 221 221 221 224 228 230 233 232 241 231 239 242 252 256 262 238 253 246 238 241 250 266 238 229 234 235 265 255 286 274 247 229 220 232 241 262 260 267 290 292 300 307 314
222 222 221 224 225 227 228 233 227 230 240 250 241 234 237 255 261 252 240 224 229 242 246 241 249 263 235 215 237 244 288 274 242 244 249 244 245 261 272 272 283 289 299 305 304
227 228 228 227 229 229 232 234 217 229 240 250 254 256 263 227 243 245 220 205 221 252 250 251 261 258 247 238 253 275 281 281 269 241 243 235 227 236 262 271 280 288 292 295 297
227 227 230 227 228 231 233 230 214 224 233 241 241 256 258 234 239 249 262 246 270 268 250 247 257 268 277 285 290 290 290 285 283 262 232 235 243 262 267 265 270 278 279 281 286
228 227 228 228 229 229 229 223 207 219 229 224 237 242 236 245 249 236 245 269 272 273 274 267 264 264 275 283 286 286 295 290 282 271 245 224 239 247 249 257 257 262 270 277 284
229 229 228 232 233 230 228 218 211 223 231 230 231 237 239 237 242 243 244 243 251 255 264 267 270 268 270 282 280 278 282 282 280 261 263 251 245 261 262 263 267 271 277 283 291
231 232 227 229 228 229 227 226 225 227 236 241 237 240 240 236 237 235 247 248 250 246 254 266 271 272 270 264 267 265 267 272 273 280 272 255 269 257 259 262 266 269 275 283 294
232 234 231 230 228 231 230 228 230 233 239 242 241 234 236 236 240 234 235 244 243 251 256 263 266 271 272 267 261 262 266 269 271 274 279 273 260 259 260 267 273 279 285 292 299
235 237 239 235 233 236 239 236 234 235 241 246 249 243 238 238 233 240 236 243 248 249 256 264 268 272 274 276 270 260 260 264 269 274 279 282 279 275 273 275 276 280 286 294 300
236 235 237 238 235 234 237 237 237 240 242 242 244 249 240 240 240 239 243 243 251 257 255 258 260 265 270 272 274 274 267 264 265 268 275 278 280 278 281 283 286 292 296 301 299
235 234 234 236 235 230 230 231 229 235 238 239 237 238 244 243 245 245 245 248 251 257 263 265 270 272 272 272 271 269 267 258 257 257 262 266 270 275 277 280 285 291 295 296 291
Height
5918 5920 5921 5922 5923 5923 5923 5923 5923 5924 5925 5925 5925 5925 5925 5925 5925 5925 5925 5925 5925 5926 5926 5925 5924 5925 5925 5926 5927 5927 5924 5924 5926 5928 5928 5931 5931 5924 5924 5927 5926 5923 5921 5921 5919
5917 5919 5921 5922 5922 5923 5923 5924 5924 5925 5926 5926 5927 5927 5927 5927 5927 5926 5927 5927 5927 5927 5928 5928 5927 5927 5926 5926 5927 5927 5926 5925 5927 5929 5932 5930 5928 5924 5924 5925 5926 5923 5921 5921 5920
5915 5918 5919 5921 5922 5922 5923 5924 5925 5926 5927 5927 5928 5928 5928 5928 5928 5928 5928 5928 5929 5929 5930 5929 5929 5930 5930 5930 5930 5928 5926 5925 5930 5930 5930 5929 5927 5924 5922 5923 5926 5924 5923 5923 5921
5913 5916 5918 5919 5921 5922 5923 5924 5925 5926 5927 5928 5929 5929 5929 5929 5930 5929 5929 5929 5929 5930 5931 5932 5931 5932 5931 5932 5931 5928 5926 5929 5930 5930 5929 5929 5928 5925 5923 5925 5927 5925 5923 5922 5923
5911 5914 5916 5918 5919 5921 5922 5923 5925 5926 5927 5928 5929 5929 5929 5930 5930 5930 5930 5929 5929 5931 5931 5931 5932 5935 5936 5934 5932 5928 5928 5929 5929 5930 5928 5929 5927 5924 5927 5925 5921 5924 5923 5921 5922
5909 5911 5913 5916 5917 5919 5921 5922 5924 5925 5927 5928 5929 5929 5929 5930 5930 5930 5930 5930 5930 5930 5931 5931 5931 5933 5934 5933 5931 5929 5928 5928 5929 5928 5927 5928 5925 5923 5926 5923 5922 5921 5922 5922 5920
5906 5909 5911 5914 5915 5917 5919 5921 5922 5924 5926 5927 5928 5928 5929 5930 5929 5930 5930 5930 5930 5930 5930 5931 5931 5933 5932 5930 5929 5929 5928 5928 5928 5926 5925 5927 5927 5924 5924 5923 5921 5919 5917 5919 5920
5903 5906 5909 5911 5913 5915 5917 5919 5921 5923 5924 5925 5926 5927 5927 5928 5928 5928 5929 5929 5929 5929 5929 5929 5930 5931 5929 5929 5929 5928 5928 5927 5926 5925 5925 5925 5926 5925 5924 5923 5919 5917 5916 5917 5918
5900 5903 5906 5908 5911 5913 5915 5917 5919 5921 5922 5924 5925 5926 5927 5926 5926 5926 5927 5927 5928 5928 5928 5928 5928 5928 5928 5927 5927 5926 5926 5925 5925 5925 5924 5927 5924 5925 5925 5927 5928 5923 5917 5916 5917
5897 5900 5903 5905 5908 5910 5912 5914 5916 5918 5920 5922 5922 5925 5924 5925 5924 5924 5925 5925 5926 5926 5927 5926 5924 5924 5924 5926 5926 5925 5925 5925 5924 5926 5925 5925 5922 5921 5924 5926 5928 5929 5924 5917 5915
5894 5897 5899 5902 5905 5907 5910 5912 5915 5917 5917 5919 5920 5921 5921 5922 5921 5923 5923 5924 5924 5924 5923 5922 5921 5920 5922 5925 5925 5923 5925 5924 5924 5926 5925 5923 5922 5920 5919 5922 5924 5926 5924 5919 5915
5890 5893 5896 5899 5901 5904 5906 5909 5911 5913 5914 5915 5917 5918 5918 5919 5919 5919 5920 5921 5920 5920 5919 5920 5919 5919 5921 5923 5923 5921 5923 5923 5923 5923 5925 5922 5920 5917 5915 5916 5921 5923 5923 5921 5916
5886 5889 5892 5895 5897 5900 5902 5905 5907 5909 5911 5912 5913 5915 5915 5917 5917 5916 5917 5917 5917 5917 5916 5916 5917 5916 5917 5919 5919 5920 5921 5922 5921 5922 5925 5925 5922 5913 5913 5913 5917 5920 5920 5921 5919
5881 5884 5887 5890 5894 5896 5899 5901 5904 5906 5908 5910 5910 5910 5912 5913 5914 5911 5913 5914 5913 5914 5913 5913 5915 5914 5915 5915 5916 5918 5920 5922 5922 5921 5921 5920 5919 5914 5911 5911 5914 5915 5916 5917 5918
5876 5879 5882 5886 5888 5891 5894 5896 5899 5902 5905 5906 5905 5906 5906 5909 5911 5908 5910 5909 5909 5910 5911 5910 5910 5912 5911 5914 5915 5917 5917 5917 5917 5917 5915 5916 5914 5912 5909 5907 5911 5911 5912 5913 5914
5871 5874 5877 5881 5883 5885 5889 5892 5895 5899 5900 5901 5901 5903 5902 5904 5905 5905 5905 5906 5906 5907 5907 5907 5909 5909 5908 5910 5910 5911 5911 5912 5912 5912 5913 5913 5910 5909 5903 5905 5906 5906 5907 5907 5909
5864 5868 5871 5874 5877 5880 5884 5887 5891 5891 5893 5895 5896 5898 5898 5899 5899 5902 5901 5902 5903 5904 5904 5904 5904 5904 5906 5907 5907 5907 5909 5908 5908 5906 5910 5907 5904 5904 5902 5902 5903 5904 5903 5903 5903
5858 5862 5864 5867 5871 5875 5879 5882 5885 5886 5884 5885 5890 5892 5893 5893 5895 5896 5897 5897 5899 5900 5901 5901 5902 5901 5903 5903 5904 5905 5905 5904 5904 5904 5905 5904 5901 5900 5898 5899 5900 5898 5898 5897 5896
5851 5855 5857 5861 5864 5868 5873 5876 5880 5879 5880 5880 5880 5886 5888 5890 5891 5891 5893 5895 5896 5897 5899 5897 5896 5899 5899 5901 5902 5902 5902 5899 5900 5900 5900 5897 5896 5896 5895 5894 5894 5893 5891 5889 5890
5844 5847 5850 5854 5857 5861 5865 5870 5874 5874 5875 5875 5875 5879 5880 5884 5885 5884 5884 5890 5890 5891 5893 5894 5893 5893 5893 5895 5897 5896 5897 5895 5894 5895 5895 5891 5891 5890 5891 5892 5892 5890 5887 5886 5884
5836 5839 5842 5845 5850 5854 5858 5863 5867 5866 5867 5871 5872 5875 5877 5878 5878 5880 5881 5884 5884 5884 5887 5888 5891 5892 5890 5890 5891 5890 5890 5890 5890 5890 5889 5889 5888 5888 5888 5888 5886 5883 5881 5880 5878
5827 5831 5835 5838 5844 5846 5851 5855 5857 5855 5857 5861 5865 5868 5871 5873 5875 5876 5877 5877 5880 5880 5880 5882 5884 5886 5888 5886 5886 5885 5884 5884 5883 5887 5885 5885 5886 5883 5881 5879 5878 5876 5873 5871 5870
5818 5821 5826 5830 5834 5838 5841 5843 5846 5848 5849 5852 5859 5863 5865 5866 5868 5870 5871 5872 5872 5873 5874 5876 5877 5879 5882 5884 5882 5879 5878 5877 5876 5875 5878 5879 5880 5877 5874 5874 5872 5870 5868 5866 5864
5808 5810 5816 5820 5822 5826 5829 5835 5839 5841 5843 5845 5849 5854 5856 5860 5860 5862 5864 5865 5865 5866 5867 5867 5869 5871 5873 5874 5876 5875 5874 5871 5870 5870 5870 5873 5873 5869 5865 5865 5864 5862 5862 5860 5858
5797 5801 5804 5810 5814 5819 5824 5829 5831 5833 5834 5836 5838 5844 5847 5848 5851 5851 5854 5856 5858 5860 5862 5862 5862 5862 5864 5865 5866 5867 5869 5864 5862 5862 5861 5865 5863 5863 5860 5858 5856 5855 5853 5853 5850
5786 5790 5793 5797 5804 5810 5812 5815 5820 5820 5824 5826 5831 5831 5835 5837 5841 5844 5847 5849 5850 5852 5854 5854 5854 5855 5857 5858 5856 5858 5861 5858 5856 5854 5851 5851 5852 5850 5849 5848 5847 5846 5844 5842 5838
5773 5777 5781 5784 5789 5795 5797 5802 5807 5811 5811 5814 5819 5821 5824 5829 5833 5837 5838 5838 5841 5843 5844 5844 5845 5847 5850 5850 5848 5849 5851 5850 5846 5845 5843 5842 5844 5841 5841 5841 5841 5839 5836 5833 5828